This is the latest recevied weather packets stored in our database for station/object WB4ZUT. If no packets are shown the sender has not sent any weather packets the latest 10 day(s).
| Time | Temp. | Humidity | Pressure | Rain* | Wind** | Luminosity | Snow |
|---|---|---|---|---|---|---|---|
| 1777855899 | 17.78° C | 51% | 1012.7 hPa | 0 mm | - | 0 W/m² | - |
| 1777855598 | 17.78° C | 51% | 1012.9 hPa | 0 mm | - | 0 W/m² | - |
| 1777855295 | 17.78° C | 50% | 1012.7 hPa | 0 mm | - | 2 W/m² | - |
| 1777854991 | 17.78° C | 50% | 1012.7 hPa | 0 mm | - | 4 W/m² | - |
| 1777854687 | 18.33° C | 50% | 1012.7 hPa | 0 mm | - | 8 W/m² | - |
| 1777854384 | 18.33° C | 50% | 1012.7 hPa | 0 mm | - | 11 W/m² | - |
| 1777854082 | 18.33° C | 49% | 1012.6 hPa | 0 mm | - | 16 W/m² | - |
| 1777853780 | 18.89° C | 48% | 1012.6 hPa | 0 mm | - | 19 W/m² | - |
| 1777853475 | 18.89° C | 47% | 1012.2 hPa | 0 mm | - | 23 W/m² | - |
| 1777853173 | 18.89° C | 47% | 1012.3 hPa | 0 mm | - | 28 W/m² | - |
| 1777852870 | 18.89° C | 46% | 1012.1 hPa | 0 mm | - | 33 W/m² | - |
| 1777852568 | 18.89° C | 46% | 1012.1 hPa | 0 mm | - | 39 W/m² | - |
| 1777852265 | 18.89° C | 46% | 1012 hPa | 0 mm | - | 45 W/m² | - |
| 1777851963 | 18.89° C | 46% | 1012.1 hPa | 0 mm | - | 45 W/m² | - |
| 1777851660 | 19.44° C | 46% | 1012.2 hPa | 0 mm | - | 53 W/m² | - |
| 1777851357 | 19.44° C | 46% | 1012.2 hPa | 0 mm | - | 67 W/m² | - |
| 1777851053 | 19.44° C | 45% | 1012.3 hPa | 0 mm | - | 83 W/m² | - |
| 1777850750 | 19.44° C | 45% | 1012.3 hPa | 0 mm | - | 95 W/m² | - |
| 1777850447 | 20° C | 45% | 1012.3 hPa | 0 mm | - | 118 W/m² | - |
| 1777850145 | 20° C | 44% | 1012.3 hPa | 0 mm | - | 117 W/m² | - |
| 1777849841 | 20° C | 44% | 1012.3 hPa | 0 mm | - | 154 W/m² | - |
| 1777849538 | 20° C | 45% | 1012.5 hPa | 0 mm | - | 167 W/m² | - |
| 1777849236 | 20° C | 44% | 1012.6 hPa | 0 mm | - | 189 W/m² | - |
| 1777848932 | 20° C | 44% | 1012.6 hPa | 0 mm | - | 197 W/m² | - |
| 1777848627 | 20° C | 45% | 1012.7 hPa | 0 mm | - | 211 W/m² | - |
* Rain latest hour (hover to see other rain measurements)
** Current wind speed in m/s (hover to see current wind gust speed)